Location: Bretagne
(43.8474°N, 0.4650°W)
Time: 12:37:13
(UTC+00:00)

Envisat - Pass Details

Date: 17 March 2026
Orbit: 761 x 762 km, 98.4° (Epoch: 14 April)

Event Time Altitude Azimuth Distance (km) Brightness Sun altitude
Rises 03:07:57 0° 9° (N) 3,234 6.8 -32.1°
Reaches altitude 10° 03:10:18 10° 6° (N) 2,304 5.9 -31.8°
Enters shadow 03:12:49 29° 355° (N) 1,373 4.5 -31.4°
